Simultaneous Nadir Overpasses (SNOs) Predictions

Prediction of SNOs between GOES-17 and AQUA Satellite Orbit:

Table of predicted SNOs for the next 14.0 days since TLE Epoch: 11/11/2023
Index Date Time (GOES-17) GOES-17 Lat,Lon AQUA Lat,Lon Distance(km) Time Diff (sec)
1 11/12/2023 08:50:33 0.00,-104.68 -0.16,-103.82 97.62 80
2 11/12/2023 21:11:14 -0.00,-104.65 -0.92,-108.83 475.17 80
3 11/14/2023 20:56:15 0.00,-104.65 -0.11,-105.17 59.12 80
4 11/16/2023 20:43:55 -0.00,-104.65 0.69,-101.51 356.98 80
5 11/17/2023 09:04:26 0.01,-104.67 0.40,-106.48 205.08 80
6 11/19/2023 08:46:45 0.01,-104.66 -0.40,-102.81 211.22 80
7 11/19/2023 21:07:24 -0.01,-104.63 -0.68,-107.81 361.64 80
8 11/21/2023 20:55:02 -0.01,-104.63 0.07,-104.13 55.63 80
9 11/23/2023 20:39:59 -0.01,-104.62 0.87,-100.46 473.49 80
10 11/24/2023 09:00:29 0.01,-104.66 0.18,-105.43 87.81 80
